Regional Weather Roundup
Issued by NWS Mt. Holly, NJ

Home | Current Version | Previous Version | Text Only | Print | Product List | Glossary On
Versions: 1 2 3 4 5 6 7 8 9 10 11 12 13 14 15 16 17 18 19 20 21 22 23 24 25 26 27 28 29 30 31 32 33 34 35 36 37 38 39 40 41 42 43 44 45 46 47 48 49 50
000
ASUS41 KPHI 262212
RWRPHI

REGIONAL WEATHER ROUNDUP
NATIONAL WEATHER SERVICE MOUNT HOLLY NJ
600 PM EDT WED APR 26 2017

NOTE:  "FAIR" INDICATES FEW OR NO CLOUDS BELOW 12,000 FEET WITH NO
SIGNIFICANT WEATHER AND/OR OBSTRUCTIONS TO VISIBILITY.

 * = STATION DOES NOT REPORT PRECIPITATION (E.G. RAIN, SNOW, ETC.)
        OR FOG.

NJZ015>026-262300-
SOUTHERN NEW JERSEY

CITY           SKY/WX    TMP DP  RH WIND       PRES   REMARKS
POMONA         CLOUDY    60  55  83 S5        29.79R
WILDWOOD*      CLOUDY    59  56  89 CALM      29.80R
MILLVILLE      CLOUDY    65  60  84 W6        29.78R
WRIGHTSTOWN    DRIZZLE   62  57  85 CALM      29.76R
MOUNT HOLLY    CLOUDY    62  57  83 W5        29.78R
TRENTON        CLOUDY    63  57  81 NW3       29.78R

$$
NJZ001>014-262300-
NORTHERN NEW JERSEY

CITY           SKY/WX    TMP DP  RH WIND       PRES   REMARKS
SUSSEX         CLOUDY    61  56  83 E5        29.80R
ANDOVER*         N/A     60  54  80 CALM      29.79R
MORRISTOWN     CLOUDY    63  57  82 CALM      29.79R
NEWARK         CLOUDY    61  57  87 N7        29.78R
TETERBORO      CLOUDY    62  58  86 CALM      29.77R
CALDWELL       CLOUDY    61  56  83 CALM      29.79R
SOMERVILLE     CLOUDY    64  57  78 CALM      29.77R
ALLAIRE*       CLOUDY    61  57  87 W7        29.80R
TOMS RIVER*    CLOUDY    63  58  83 W7        29.79R

$$
PAZ043-044-047-054-055-060>062-066>071-262300-
EASTERN PENNSYLVANIA

CITY           SKY/WX    TMP DP  RH WIND       PRES   REMARKS
PHILADELPHIA   CLOUDY    64  56  75 NE5       29.79R
NORTH PHILA    CLOUDY    67  58  72 CALM      29.80R
BLUE BELL*     CLOUDY    63  55  77 CALM      29.79S
DOYLESTOWN     CLOUDY    64  57  78 CALM      29.77S
QUAKERTOWN*    CLOUDY    68  57  68 CALM      29.79R
PERKASIE*      CLOUDY    64  57  77 CALM      29.79S
POTTSTOWN      MOSUNNY   65  56  72 S5        29.80R
LANCASTER      CLOUDY    67  60  78 SE3       29.76F
COATESVILLE    CLOUDY    64  57  77 CALM      29.80S
READING        MOSUNNY   70  59  68 CALM      29.75F
ALLENTOWN      MOSUNNY   69  56  62 CALM      29.77R
MOUNT POCONO   CLOUDY    63  57  81 CALM      29.79S
HAZLETON       CLOUDY    68  55  64 SE7       29.80F
LEHIGHTON      MOCLDY    70  55  60 CALM      29.77S
WILKES BARRE   SUNNY     74  57  55 VRB6      29.75R

$$
DEZALL-MDZ008-012-015-019-020-262300-
DELAWARE AND EASTERN MARYLAND

CITY           SKY/WX    TMP DP  RH WIND       PRES   REMARKS
WILMINGTON     CLOUDY    65  58  78 CALM      29.79R
DOVER          CLOUDY    64  64 100 W5        29.78R
GEORGETOWN     CLOUDY    64  59  83 W3        29.80R
EASTON         CLOUDY    64  57  77 CALM      29.83S
ABERDEEN       CLOUDY    64  59  86 S3        29.79S
PATUXENT       MOSUNNY   64  60  87 E6        29.79R
OCEAN CITY     CLOUDY    56  55  97 SW6       29.81R FOG
WALLOPS ISLAND CLOUDY    66  59  78 NW6       29.80R
CAMBRIDGE      CLOUDY    64  57  77 CALM      29.80R
SALISBURY      CLOUDY    63  59  87 W6        29.80R

$$
PAZ001-021-NYZ056-072-MDZ011-DCZ001-262300-
OTHER NEARBY LOCATIONS

CITY           SKY/WX    TMP DP  RH WIND       PRES   REMARKS
HARRISBURG     PTSUNNY   68  59  73 CALM      29.76S
STATE COLLEGE  SUNNY     72  57  60 W6        29.76R
WILLIAMSPORT   MOSUNNY   75  57  53 S9        29.71S
BINGHAMTON     MOSUNNY   71  53  52 VRB6      29.74F
NEW YORK CITY  CLOUDY    59  57  93 CALM      29.81R FOG
BALTIMORE      CLOUDY    66  58  75 CALM      29.78R
WASHINGTON DC  PTSUNNY   71  60  68 E7        29.77S

$$



USA.gov is the U.S. government's official web portal to all federal, state and local government web resources and services.